Terminal Aerodrome Forecast
Issued by NWS Melbourne, FL

Home | Current Version | Previous Version | Text Only | Print | Product List | Glossary On
Versions: 1 2 3 4 5 6 7 8 9 10 11 12 13 14 15 16 17 18 19 20 21 22 23 24 25 26 27
000
FTUS42 KMLB 240500
TAFMCO
TAF
KMCO 240532Z 2406/2506 00000KT P6SM SKC
      TEMPO 2410/2412 5SM BR FEW015
     FM241500 15006KT P6SM FEW035=

USA.gov is the U.S. government's official web portal to all federal, state and local government web resources and services.